This is the latest recevied weather packets stored in our database for station/object VK4TOM-13. If no packets are shown the sender has not sent any weather packets the latest 10 day(s).
| Time | Temp. | Humidity | Pressure | Rain* | Wind** | Luminosity | Snow |
|---|---|---|---|---|---|---|---|
| 1788343472 | 19.44° C | 70% | 1021.2 hPa | 0 mm | - | - | - |
| 1788342871 | 19.44° C | 70% | 1021 hPa | 0 mm | - | - | - |
| 1788342270 | 20° C | 70% | 1020.8 hPa | 0 mm | - | - | - |
| 1788341669 | 20° C | 70% | 1020.7 hPa | 0 mm | - | - | - |
| 1788341068 | 20.56° C | 70% | 1020.5 hPa | 0 mm | - | - | - |
| 1788340466 | 20.56° C | 70% | 1020.3 hPa | 0 mm | - | - | - |
| 1788339865 | 21.11° C | 70% | 1020.1 hPa | 0 mm | - | - | - |
| 1788339264 | 21.11° C | 70% | 1020 hPa | 0 mm | - | - | - |
| 1788338663 | 21.67° C | 70% | 1019.8 hPa | 0 mm | - | - | - |
| 1788338062 | 21.67° C | 70% | 1019.6 hPa | 0 mm | - | - | - |
| 1788337461 | 22.22° C | 70% | 1019.4 hPa | 0 mm | - | - | - |
| 1788336860 | 22.22° C | 70% | 1019.2 hPa | 0 mm | - | - | - |
| 1788336259 | 22.78° C | 70% | 1019.1 hPa | 0 mm | - | - | - |
| 1788335658 | 22.78° C | 70% | 1019 hPa | 0 mm | - | - | - |
| 1788335057 | 23.33° C | 70% | 1018.8 hPa | 0 mm | - | - | - |
| 1788334456 | 23.89° C | 70% | 1018.7 hPa | 0 mm | - | - | - |
| 1788333855 | 24.44° C | 70% | 1018.8 hPa | 0 mm | - | - | - |
| 1788333253 | 24.44° C | 70% | 1018.8 hPa | 0 mm | - | - | - |
| 1788332652 | 25° C | 70% | 1018.6 hPa | 0 mm | - | - | - |
| 1788332052 | 25.56° C | 70% | 1018.6 hPa | 0 mm | - | - | - |
| 1788331451 | 26.11° C | 70% | 1018.5 hPa | 0 mm | - | - | - |
| 1788330849 | 27.22° C | 70% | 1018.4 hPa | 0 mm | - | - | - |
| 1788330248 | 27.78° C | 70% | 1018.3 hPa | 0 mm | - | - | - |
| 1788329647 | 28.33° C | 54% | 1018.4 hPa | 0 mm | - | - | - |
| 1788329046 | 30° C | 44% | 1018.4 hPa | 0 mm | - | - | - |
* Rain since midnight (hover to see other rain measurements)
** Current wind speed in m/s (hover to see current wind gust speed)